Flag for U.S.A. Weather past 2 weeks in Wright, Florida, U.S.A.

Now
66 °F

Low clouds.


Feels Like: 66 °F
Forecast: 54 / 67 °F
Wind: 7 mph from Southeast

Location: Hurlburt Field

Current Time: Dec 22, 2014 at 3:26:35 PM

Latest Report: Dec 22, 2014 at 2:58 PM


Visibility: 10 mi

Pressure: 29.80 "Hg

Humidity: 79%

Dew point: 60 °F

Location of WrightLocation

Historic Weather in Wright — Graph

°F

Wright temperature yesterday

Maximum temperature yesterday: 57 °F (at 2:58 PM)
Minimum temperature yesterday: 52 °F (at 12:58 AM)
Average temperature yesterday: 55 °F

Past Weeks' High & Low Weather Summary

 TemperatureHumidityPressure
High71 °F (Dec 16, 12:58 PM)88% (Dec 9, 6:58 AM)30.34 "Hg (Dec 9, 6:58 AM)
Low35 °F (Dec 11, 6:58 AM)16% (Dec 12, 10:58 AM)29.80 "Hg (Dec 22, 1:58 PM)
Average52 °F67%30.15 "Hg
* Reported Dec 7 1:58 PM — Dec 22 1:58 PM, Wright, Weather by CustomWeather, © 2014

Note: Actual official high and low records may vary slightly from our data, if they occured in-between our weather recording intervals... More about our weather records

Advertising

Wright weather history for previous 24 hours

 ConditionsComfort  
Time TempWeatherWind HumidityBarometerVisibility
1:58 PM
Dec 22
66 °FMostly cloudy.8 mph77%29.80 "Hg10 mi
1:00 PM68 °FLight rain. Broken clouds.7 mph78%29.81 "Hg10 mi
8:58 AM57 °FHeavy rain. Fog.1 mph88%29.93 "Hg2 mi
8:03 AM57 °FRain. Fog.5 mph88%29.91 "Hg4 mi
7:58 AM56 °FRain. Fog.6 mph88%29.91 "Hg5 mi
6:58 AM56 °FLight rain. Low clouds.6 mph87%29.93 "Hg7 mi
5:58 AM55 °FLight rain. Overcast.10 mph87%29.91 "Hg8 mi
4:58 AM55 °FHeavy rain. Fog.5 mph87%29.94 "Hg4 mi
3:58 AM55 °FLight rain. Fog.8 mph88%29.91 "Hg1 mi
3:03 AM55 °FFog.6 mph88%29.93 "Hg1 mi
2:58 AM55 °FFog.5 mph88%29.93 "Hg2 mi
1:58 AM55 °FFog.6 mph88%29.96 "Hg2 mi
12:58 AM55 °FFog.6 mph88%29.96 "Hg6 mi
11:58 PM
Dec 21
55 °FFog.6 mph88%29.98 "Hg2 mi
10:58 PM55 °FFog.6 mph88%29.99 "Hg5 mi
9:58 PM56 °FLow clouds.8 mph87%29.98 "Hg10 mi
8:58 PM56 °FLow clouds.7 mph86%30.01 "Hg10 mi
7:58 PM56 °FLow clouds.5 mph86%30.01 "Hg10 mi
6:58 PM56 °FLow clouds.8 mph86%30.03 "Hg10 mi
5:58 PM56 °FLow clouds.6 mph86%30.03 "Hg10 mi
4:58 PM56 °FLow clouds.6 mph86%30.01 "Hg10 mi
3:58 PM56 °FLow clouds.6 mph85%30.01 "Hg10 mi
Weather by CustomWeather, © 2014

See weather overviewHow to use our weather pages